This is the latest recevied weather packets stored in our database for station/object K4AXV-13. If no packets are shown the sender has not sent any weather packets the latest 10 day(s).
| Time | Temp. | Humidity | Pressure | Rain* | Wind** | Luminosity | Snow |
|---|---|---|---|---|---|---|---|
| 1777674425 | 17.78° C | - | - | 0 mm | 2.24 m/s, 93° | - | - |
| 1777674126 | 17.78° C | - | - | 0 mm | 1.79 m/s, 93° | - | - |
| 1777673824 | 17.78° C | - | - | 0 mm | 1.34 m/s, 89° | - | - |
| 1777673525 | 17.78° C | - | - | 0 mm | 1.79 m/s, 113° | - | - |
| 1777673223 | 18.33° C | - | - | 0 mm | 1.79 m/s, 114° | - | - |
| 1777672924 | 17.78° C | - | - | 0 mm | 1.79 m/s, 108° | - | - |
| 1777672623 | 17.78° C | - | - | 0 mm | 2.24 m/s, 138° | - | - |
| 1777672324 | 17.78° C | - | - | 0 mm | 2.68 m/s, 96° | - | - |
| 1777672022 | 17.78° C | - | - | 0 mm | 3.13 m/s, 141° | - | - |
| 1777671422 | 17.78° C | - | - | 0 mm | 2.24 m/s, 138° | - | - |
| 1777671123 | 17.78° C | - | - | 0 mm | 2.24 m/s, 122° | - | - |
| 1777670822 | 17.78° C | - | - | 0 mm | 1.79 m/s, 90° | - | - |
| 1777670523 | 18.33° C | - | - | 0 mm | 1.34 m/s, 127° | - | - |
| 1777670221 | 17.78° C | - | - | 0 mm | 1.34 m/s, 127° | - | - |
| 1777669621 | 18.33° C | - | - | 0 mm | 1.79 m/s, 96° | - | - |
| 1777669322 | 17.78° C | - | - | 0 mm | 1.79 m/s, 96° | - | - |
| 1777669021 | 17.78° C | - | - | 0 mm | 2.24 m/s, 98° | - | - |
| 1777668722 | 17.78° C | - | - | 0 mm | 3.13 m/s, 124° | - | - |
| 1777668420 | 17.78° C | - | - | 0 mm | 2.24 m/s, 124° | - | - |
| 1777668121 | 17.78° C | - | - | 0 mm | 2.24 m/s, 90° | - | - |
| 1777667820 | 17.78° C | - | - | 0 mm | 2.24 m/s, 155° | - | - |
| 1777667521 | 17.78° C | - | - | 0 mm | 1.79 m/s, 84° | - | - |
| 1777667220 | 17.78° C | - | - | 0 mm | 2.24 m/s, 97° | - | - |
| 1777666921 | 17.78° C | - | - | 0 mm | 1.79 m/s, 94° | - | - |
| 1777666619 | 17.78° C | - | - | 0 mm | 2.68 m/s, 111° | - | - |
* Rain latest hour (hover to see other rain measurements)
** Current wind speed in m/s (hover to see current wind gust speed)